Vorticity
11 9 6 6 5 8 4 23 39 22 9 14 -4 16 15 11 4 8 5 12 9 10 8 7 11 7 10 14 13 15 18 26 22 17 17 14 15 12 15 12 13 12 12 9 15 15 22 14 25 27 18 16 10 14
22 16 2 5 5 6 9 17 20 34 21 13 -4 5 -1 16 17 5 12 5 12 11 3 10 7 8 9 6 10 13 13 11 14 11 14 14 13 13 13 10 10 14 17 14 13 13 20 16 15 8 -1 7 11 9
-1 -7 -3 4 6 2 4 8 21 24 29 11 20 -10 -11 24 7 12 18 12 9 8 15 -0 19 12 19 18 8 10 8 10 11 10 9 10 9 10 9 8 5 5 10 14 17 17 14 11 8 10 10 17 17 15
32 31 30 30 38 40 23 20 19 16 22 25 17 19 13 -11 1 9 18 16 15 13 8 7 9 17 12 5 13 8 13 6 -0 2 7 9 8 11 9 9 15 14 12 13 13 7 6 4 5 5 5 3 5 5
25 15 22 26 24 22 28 22 18 14 18 17 19 18 11 27 -20 -11 2 7 9 4 7 2 8 11 10 2 1 1 8 11 14 10 13 15 17 28 26 19 12 13 15 14 12 11 12 10 8 2 2 -1 -2 10
10 5 18 17 18 21 29 17 27 27 24 19 13 26 21 10 25 37 -18 -7 -7 -7 -0 9 7 9 14 14 13 12 8 -1 -5 4 16 24 22 12 15 19 14 29 14 14 11 7 4 4 1 1 15 40 37 37
16 13 11 7 17 18 17 18 13 22 24 27 38 22 20 17 -2 7 2 5 5 4 -3 -4 -4 -5 11 9 6 4 0 5 9 17 9 2 9 26 19 -2 2 -4 -1 6 1 3 7 13 25 29 21 26 30 23
10 10 14 15 12 11 19 19 15 14 7 15 12 6 15 19 22 26 27 20 11 15 17 15 18 11 11 1 8 24 23 25 25 21 20 16 17 15 7 19 14 10 3 4 6 13 25 26 12 18 30 32 21 7
6 6 5 6 12 12 10 12 26 25 16 16 11 11 3 9 12 17 21 24 27 25 19 22 28 28 22 31 23 14 20 18 18 18 6 12 11 9 5 -4 4 15 22 27 30 16 10 8 7 8 10 13 16 7
7 5 5 7 7 6 8 9 9 10 21 26 23 21 26 27 28 24 17 20 19 18 16 22 22 21 24 14 8 13 15 10 5 3 2 3 9 10 19 24 31 23 13 6 6 9 9 7 9 7 9 7 5 5
7 8 6 4 6 7 8 6 6 8 7 5 7 8 9 8 10 13 15 11 13 16 15 16 13 13 8 10 10 8 4 -1 7 14 12 14 16 22 10 7 7 6 6 9 6 6 6 7 6 6 8 10 6 6
7 7 7 8 7 6 7 7 7 7 8 8 8 8 9 6 4 9 8 7 6 8 12 10 4 5 5 5 5 4 7 7 4 8 6 4 6 7 5 5 7 10 13 15 19 15 12 7 4 3 5 6 11 10
9 8 7 7 7 7 9 8 7 7 7 6 6 5 6 7 12 12 4 1 7 7 5 6 7 10 9 8 8 8 5 6 6 4 2 5 5 6 8 7 6 9 10 7 5 10 6 8 9 10 9 9 8 8
7 8 9 7 7 7 8 9 8 7 6 6 4 5 4 6 9 8 8 5 3 7 7 5 4 7 6 5 6 6 3 3 3 6 8 10 7 10 14 16 20 17 14 13 14 16 17 18 13 13 12 10 5 4
6 7 8 9 7 7 7 8 8 8 7 9 9 8 8 8 8 8 7 7 5 5 6 6 5 8 9 7 8 5 6 5 9 9 6 8 13 14 17 16 14 14 19 23 13 19 20 19 20 20 16 20 19 16
0 -1 3 2 4 7 9 10 11 11 9 6 5 8 7 7 6 7 6 7 7 8 8 7 6 6 5 5 7 8 8 8 8 11 14 16 17 16 16 15 13 13 13 13 13 13 14 14 15 15 15 14 14 13
35 24 13 8 3 2 7 7 9 11 12 13 12 10 10 11 9 9 9 9 9 9 9 10 11 9 9 9 10 10 10 11 15 18 18 17 18 20 21 22 21 21 21 21 20 21 21 19 20 26 31 31 30 23
15 21 21 18 21 15 14 12 14 11 12 11 10 9 9 9 10 10 10 10 10 10 10 10 9 10 10 10 10 9 15 18 19 19 17 15 16 16 17 17 17 17 20 23 21 15 13 13 14 16 19 25 33 38
11 14 14 15 21 20 13 10 11 14 12 11 12 12 12 11 11 10 10 11 10 10 10 11 10 11 9 11 17 18 18 19 18 16 14 13 16 19 20 18 18 20 16 11 9 11 12 12 10 8 8 9 13 16
22 8 9 16 17 15 18 20 18 19 15 15 16 16 15 14 13 12 12 12 11 11 11 11 10 11 15 18 18 18 19 18 13 14 16 16 18 16 15 13 9 11 12 12 14 17 18 16 16 19 20 19 18 17
22 25 15 7 9 13 15 14 13 14 15 14 14 15 15 15 14 13 11 10 10 9 11 14 15 16 17 17 19 18 15 13 16 15 15 18 13 8 9 10 11 10 10 17 17 13 18 24 24 16 11 11 11 14
22 19 20 22 18 11 8 9 12 13 13 12 12 11 11 10 10 10 10 10 12 12 16 18 16 15 16 18 16 14 11 14 17 19 21 16 10 11 10 12 11 6 14 12 13 16 25 8 9 14 16 7 2 -6
16 18 26 27 22 20 19 15 11 9 9 8 10 11 12 12 10 12 14 14 16 21 17 13 14 15 12 14 16 13 11 12 15 13 11 14 9 5 7 12 10 14 13 19 23 21 24 8 6 13 12 9 6 8
16 16 14 18 21 22 23 20 20 17 16 15 14 14 15 15 16 18 19 22 18 13 12 13 16 11 9 10 16 14 13 14 13 13 9 11 10 9 11 11 13 10 17 17 19 24 16 9 10 5 7 10 11 20
23 16 15 14 14 15 15 17 19 21 20 21 21 21 21 21 20 20 18 14 13 13 15 18 15 7 5 6 8 14 14 15 15 15 13 14 11 9 9 14 11 10 15 14 9 8 8 5 10 13 22 39 31 29
23 29 26 16 14 14 13 14 14 13 13 14 14 15 16 16 17 15 15 13 12 12 15 17 18 16 12 10 7 10 14 12 12 12 11 10 7 9 15 16 12 11 16 15 17 13 12 15 30 31 25 26 32 32
15 19 25 28 20 14 14 14 14 13 13 13 13 14 15 15 15 14 13 11 8 6 7 7 9 11 14 14 12 6 12 13 10 10 10 10 12 15 20 12 10 12 12 17 19 23 34 32 23 18 15 14 13 16
14 18 24 23 31 20 12 14 13 13 13 12 13 12 12 13 13 12 9 7 6 3 3 5 6 9 10 12 13 11 5 8 10 10 14 12 12 13 11 10 9 11 18 32 42 35 20 16 12 10 10 12 14 15
9 22 21 24 24 30 15 12 14 13 13 13 13 12 11 11 10 10 9 9 9 8 8 7 7 6 8 11 11 16 8 9 16 15 11 12 11 10 10 12 9 19 28 29 17 16 11 10 9 11 14 14 16 18
7 22 17 28 34 32 18 12 13 14 15 15 14 14 14 13 13 12 11 10 10 10 10 9 9 9 10 11 14 15 14 7 13 15 14 9 11 14 14 11 18 13 15 14 17 11 6 7 16 17 14 17 11 10
9 21 17 33 37 31 18 12 11 9 8 8 6 6 7 9 11 14 14 14 13 14 15 16 15 15 13 12 10 10 14 8 10 9 10 9 9 14 13 10 22 10 11 15 16 5 9 14 15 12 12 8 13 15
20 21 18 32 32 27 18 13 9 5 2 4 5 7 10 11 13 13 13 16 18 16 13 12 13 16 17 16 13 10 12 8 3 9 15 7 9 17 14 10 22 14 22 18 12 12 15 15 9 10 12 15 18 19
25 21 17 27 27 22 15 13 13 15 17 18 16 17 15 17 19 21 21 21 19 17 16 15 13 12 15 18 16 12 11 11 5 12 15 6 15 17 13 9 18 18 17 13 14 14 14 9 6 12 14 16 17 11
Height
5443 5443 5444 5445 5445 5446 5447 5447 5449 5452 5456 5462 5468 5472 5477 5482 5488 5492 5496 5498 5502 5505 5510 5514 5519 5522 5525 5528 5530 5532 5537 5537 5538 5542 5543 5543 5545 5546 5550 5548 5548 5547 5547 5549 5546 5545 5544 5544 5541 5538 5536 5539 5537 5536
5445 5443 5443 5443 5442 5442 5442 5442 5443 5445 5450 5454 5461 5466 5469 5473 5479 5481 5487 5491 5495 5499 5504 5507 5510 5513 5514 5517 5520 5522 5525 5526 5525 5528 5529 5528 5530 5533 5533 5535 5534 5536 5534 5533 5534 5530 5526 5526 5524 5524 5522 5523 5518 5517
5443 5442 5440 5439 5437 5436 5436 5436 5437 5439 5442 5447 5453 5458 5464 5467 5470 5476 5480 5483 5487 5491 5496 5499 5500 5502 5507 5507 5509 5514 5515 5514 5517 5516 5517 5517 5519 5521 5522 5522 5522 5524 5521 5518 5517 5517 5512 5509 5506 5504 5504 5503 5501 5498
5440 5437 5435 5432 5429 5428 5428 5429 5431 5433 5436 5441 5445 5451 5456 5460 5464 5468 5472 5475 5478 5484 5486 5489 5490 5493 5496 5498 5499 5502 5505 5505 5506 5506 5506 5506 5510 5509 5510 5509 5511 5514 5510 5505 5503 5504 5496 5500 5493 5493 5492 5489 5485 5480
5440 5436 5432 5428 5425 5423 5423 5424 5425 5427 5430 5434 5439 5443 5448 5453 5458 5462 5465 5468 5471 5476 5479 5481 5482 5485 5488 5490 5491 5492 5494 5495 5495 5494 5495 5497 5496 5496 5496 5495 5504 5503 5494 5490 5490 5488 5483 5486 5483 5480 5478 5474 5469 5463
5443 5439 5434 5430 5427 5424 5422 5422 5422 5423 5425 5429 5433 5437 5442 5446 5449 5453 5458 5461 5464 5467 5471 5474 5478 5479 5480 5482 5483 5484 5484 5485 5484 5484 5483 5483 5485 5484 5482 5485 5492 5486 5481 5479 5477 5474 5472 5473 5470 5467 5463 5457 5450 5445
5446 5442 5437 5433 5429 5426 5424 5423 5422 5422 5423 5426 5428 5432 5435 5439 5443 5447 5451 5455 5457 5459 5462 5464 5467 5471 5472 5472 5472 5472 5472 5472 5471 5470 5471 5472 5472 5471 5469 5474 5478 5474 5470 5467 5463 5460 5461 5459 5455 5451 5445 5440 5436 5434
5449 5445 5440 5437 5433 5430 5427 5424 5423 5423 5424 5426 5428 5430 5432 5434 5437 5440 5443 5446 5448 5450 5452 5454 5458 5461 5461 5461 5460 5459 5458 5457 5457 5457 5459 5460 5460 5460 5461 5467 5463 5461 5458 5455 5451 5450 5448 5446 5444 5439 5434 5429 5426 5425
5451 5448 5444 5440 5437 5433 5430 5428 5426 5425 5425 5426 5427 5429 5431 5431 5433 5435 5437 5438 5440 5443 5442 5446 5448 5448 5449 5450 5449 5449 5448 5448 5448 5449 5451 5451 5450 5451 5455 5454 5451 5447 5443 5440 5438 5438 5436 5434 5431 5428 5425 5421 5418 5416
5451 5448 5446 5443 5440 5437 5434 5432 5430 5428 5427 5426 5427 5428 5429 5429 5430 5431 5433 5433 5434 5435 5436 5438 5439 5438 5440 5441 5441 5442 5441 5441 5440 5444 5442 5441 5441 5445 5443 5439 5436 5434 5432 5429 5427 5425 5423 5420 5418 5416 5414 5411 5409 5407
5448 5446 5445 5443 5441 5439 5437 5434 5433 5432 5431 5430 5429 5429 5429 5429 5430 5430 5431 5431 5432 5432 5432 5433 5432 5433 5435 5435 5434 5434 5433 5433 5432 5435 5435 5432 5432 5434 5431 5428 5426 5424 5421 5418 5415 5412 5410 5407 5405 5403 5401 5400 5398 5396
5444 5442 5441 5440 5439 5437 5436 5435 5433 5432 5431 5431 5430 5430 5430 5430 5430 5430 5429 5429 5430 5430 5429 5429 5429 5429 5430 5429 5429 5428 5427 5425 5424 5424 5422 5421 5422 5420 5417 5414 5412 5409 5406 5403 5401 5398 5396 5393 5391 5389 5387 5385 5384 5382
5438 5437 5436 5435 5434 5433 5432 5432 5431 5430 5429 5428 5428 5428 5428 5429 5428 5427 5425 5425 5425 5425 5425 5425 5424 5424 5423 5422 5421 5420 5417 5417 5415 5413 5411 5411 5408 5404 5401 5399 5395 5393 5390 5387 5385 5383 5380 5378 5376 5374 5372 5370 5369 5367
5430 5430 5429 5429 5428 5427 5427 5426 5425 5425 5424 5424 5423 5423 5423 5424 5424 5422 5421 5421 5420 5419 5419 5418 5417 5417 5415 5414 5412 5410 5407 5405 5403 5402 5400 5397 5393 5389 5385 5382 5378 5375 5372 5369 5366 5364 5362 5360 5358 5356 5354 5353 5352 5350
5420 5421 5421 5421 5420 5420 5419 5419 5418 5418 5418 5417 5417 5417 5418 5417 5417 5416 5415 5414 5413 5412 5412 5411 5410 5409 5407 5404 5402 5399 5396 5394 5391 5388 5384 5379 5374 5370 5367 5364 5361 5358 5355 5351 5348 5346 5343 5340 5338 5337 5334 5332 5330 5330
5409 5410 5410 5411 5411 5411 5410 5410 5410 5409 5408 5408 5408 5409 5408 5408 5407 5406 5406 5405 5405 5404 5402 5401 5399 5398 5396 5393 5391 5387 5384 5380 5376 5372 5368 5363 5359 5356 5353 5349 5346 5342 5338 5335 5331 5328 5326 5322 5319 5318 5316 5311 5308 5308
5396 5397 5398 5399 5400 5400 5400 5400 5400 5399 5399 5399 5399 5398 5397 5397 5396 5396 5395 5395 5394 5393 5392 5390 5388 5386 5383 5380 5378 5374 5370 5366 5362 5357 5353 5349 5346 5343 5339 5335 5331 5327 5324 5320 5317 5313 5310 5306 5302 5299 5296 5292 5288 5287
5387 5386 5386 5387 5387 5388 5389 5389 5388 5389 5389 5389 5388 5388 5387 5387 5386 5385 5385 5384 5383 5381 5380 5378 5376 5374 5371 5369 5365 5362 5357 5353 5349 5345 5340 5336 5334 5330 5326 5323 5319 5315 5313 5309 5305 5302 5298 5294 5290 5285 5280 5276 5273 5268
5380 5378 5377 5376 5376 5376 5377 5378 5377 5377 5378 5377 5377 5376 5376 5376 5375 5374 5374 5373 5372 5370 5369 5367 5365 5363 5360 5357 5352 5348 5345 5342 5339 5334 5330 5326 5323 5320 5315 5312 5309 5306 5303 5299 5296 5292 5288 5284 5279 5274 5271 5267 5263 5259
5369 5369 5368 5367 5367 5366 5366 5367 5366 5366 5366 5366 5365 5365 5365 5364 5364 5363 5363 5362 5361 5360 5358 5356 5354 5351 5348 5345 5341 5338 5334 5332 5329 5327 5322 5317 5314 5310 5307 5304 5301 5298 5294 5290 5286 5281 5277 5274 5268 5264 5261 5257 5253 5251
5361 5360 5359 5359 5358 5358 5357 5357 5356 5357 5356 5356 5355 5355 5355 5354 5354 5353 5353 5352 5350 5349 5347 5345 5342 5340 5337 5335 5332 5329 5326 5323 5320 5318 5315 5312 5307 5304 5300 5296 5293 5289 5285 5281 5277 5272 5266 5262 5259 5256 5252 5249 5246 5243
5355 5353 5350 5349 5349 5349 5348 5348 5348 5347 5347 5347 5346 5346 5345 5345 5344 5343 5342 5341 5340 5338 5337 5335 5333 5331 5329 5327 5325 5322 5319 5316 5313 5310 5308 5305 5302 5299 5294 5290 5286 5282 5276 5271 5267 5263 5259 5255 5252 5249 5245 5242 5239 5236
5351 5347 5344 5341 5340 5339 5340 5338 5338 5338 5338 5337 5337 5336 5336 5335 5334 5333 5332 5331 5330 5329 5328 5327 5325 5324 5322 5320 5318 5315 5312 5309 5306 5304 5301 5298 5295 5292 5288 5283 5279 5275 5271 5264 5258 5254 5251 5248 5245 5241 5237 5233 5229 5225
5347 5343 5339 5336 5334 5332 5331 5330 5329 5329 5328 5327 5327 5326 5326 5325 5324 5323 5322 5322 5322 5321 5320 5319 5318 5317 5316 5314 5312 5310 5307 5304 5300 5298 5296 5293 5289 5285 5281 5276 5271 5266 5262 5257 5251 5247 5244 5241 5237 5233 5228 5223 5218 5212
5343 5339 5335 5331 5328 5327 5325 5323 5322 5321 5320 5319 5319 5318 5317 5316 5316 5316 5315 5315 5315 5314 5314 5313 5312 5311 5309 5307 5306 5304 5302 5299 5296 5292 5290 5288 5284 5279 5274 5269 5263 5259 5256 5251 5246 5242 5238 5234 5229 5224 5218 5212 5206 5201
5337 5332 5329 5325 5323 5321 5318 5317 5316 5314 5313 5313 5312 5312 5311 5311 5310 5310 5310 5310 5309 5309 5308 5307 5306 5306 5305 5303 5301 5298 5295 5293 5290 5287 5284 5281 5278 5275 5271 5267 5263 5255 5249 5245 5241 5236 5231 5227 5222 5217 5212 5207 5201 5197
5334 5328 5323 5319 5316 5314 5313 5311 5310 5309 5308 5307 5307 5306 5306 5306 5305 5306 5305 5305 5305 5304 5303 5303 5301 5300 5298 5296 5295 5293 5291 5288 5285 5283 5280 5277 5274 5270 5267 5263 5258 5252 5246 5240 5234 5229 5225 5222 5219 5215 5212 5208 5203 5199
5328 5321 5317 5312 5309 5306 5305 5305 5304 5303 5302 5302 5302 5301 5301 5301 5301 5300 5300 5300 5300 5299 5298 5297 5296 5295 5293 5291 5289 5287 5285 5282 5279 5277 5274 5271 5269 5265 5260 5256 5250 5245 5238 5232 5228 5225 5223 5221 5219 5216 5213 5210 5206 5203
5321 5315 5310 5305 5301 5299 5298 5298 5297 5297 5296 5296 5296 5296 5296 5295 5295 5294 5294 5294 5293 5293 5292 5292 5291 5289 5288 5287 5285 5283 5282 5280 5277 5274 5272 5269 5264 5259 5255 5252 5248 5243 5239 5234 5230 5228 5226 5223 5221 5218 5215 5212 5209 5206
5315 5308 5301 5296 5292 5291 5291 5291 5291 5290 5290 5290 5290 5290 5289 5289 5288 5288 5287 5286 5286 5285 5284 5284 5283 5282 5281 5279 5279 5278 5277 5276 5274 5271 5269 5266 5262 5259 5256 5251 5248 5244 5240 5237 5234 5231 5229 5226 5223 5220 5217 5214 5211 5209
5305 5300 5293 5288 5284 5284 5284 5285 5285 5285 5285 5285 5285 5284 5283 5282 5281 5280 5279 5278 5277 5277 5276 5276 5275 5274 5274 5274 5272 5271 5270 5270 5268 5265 5263 5261 5258 5256 5253 5250 5247 5243 5240 5237 5235 5233 5231 5228 5225 5223 5220 5217 5214 5211
5297 5292 5287 5282 5279 5279 5279 5279 5279 5280 5280 5279 5278 5277 5276 5275 5273 5271 5270 5269 5268 5268 5267 5267 5267 5267 5267 5267 5267 5266 5265 5264 5263 5262 5260 5258 5256 5253 5251 5248 5245 5242 5240 5238 5236 5234 5232 5230 5228 5225 5223 5220 5217 5215
5288 5285 5281 5278 5275 5274 5274 5274 5274 5273 5272 5272 5271 5270 5268 5266 5264 5263 5261 5260 5260 5259 5259 5260 5260 5260 5260 5260 5260 5261 5261 5261 5260 5259 5257 5256 5254 5251 5249 5246 5244 5241 5240 5238 5237 5236 5234 5232 5231 5228 5226 5223 5221 5219